NOAA 16 DEB, 42382

Orbit data source: Space-Track

NOAA 16 DEB, 42382 is space debris in SSO originally from a launch on Thu, 21 Sep 2000 UTC launched from the Air Force Western Test Range (AFWTR). Debris objects in space refer to the collection of defunct objects orbiting the Earth. Examples of debris include non-operational satellites, rocket bodies, and fragments generated from explosions, collisions, or faulty payload assembly.

Loading next visibility...
Identifier
42382, 2000-055SA
Orbit
SSO
Country
Flag of USUS
Related business
Manufacturer
Unknown
Mission
Spacecraft
Bus & Motor
Unknown
Mass
Unknown
Launch date (UTC)
2000-09-21 (25 years ago)
Launch vehicle
Unknown
Launch site
Air Force Western Test Range (AFWTR)
Object type
Payload
Rocket body
Debris
Shape & HBR
Unknown shape, 0.1 m
Radar Cross Section
Small (<0.1 m²)

Expand to show TLE details & history
Last TLE update: 23 hours ago

TLE from 23 hours ago
0 NOAA 16 DEB
1 42382U 00055SA  25286.51865528  .00008562  00000-0  36016-2 0  9991
2 42382  98.8956  19.5370 0041384 176.1013 184.0497 14.25556646493902
Epoch: 2025-10-13T12:26Z
TLE epoch observation values (Epoch: 2025-10-13T12:26:51.816Z)
Latitude
0.00006°
Longitude
170.50081°
Altitude
839.204 km
Speed
7.418 km/s
True Right ascension
01h 18m 08s
True Declination
0° 00' 00"
Sunlit
Object was in full shadow at epoch
Visualization orbit readout
Latitude
Unknown
Longitude
Unknown
Altitude
Unknown
Speed
Unknown
Apparent Right ascension
Unknown
Apparent Declination
Unknown
Sunlit
N/A
Visualization observer readout
Local Sidereal Time
06:22:43
Azimuth
Unknown
Elevation
Unknown
Doppler factor
Unknown
Orbital elements
Apogee altitude
833.503 km
Perigee altitude
774.06 km
Semi-major axis
7,181.919 km
Eccentricity
0.00414
Inclination
98.8956°
RAAN
19.537°
Arg. of periapsis
176.1013°
True anomaly
184.01638°
Mean anomaly
184.0497°
Eccentric anomaly
184.03302°
Mean motion
3.56601 °/min
Orbital period
100.95 mins
BSTAR
0.0036016
Loading maneuver chart data...
Computing Atmospheric mass density...
Loading historical data...
Loading historical data...
Loading historical data...
Loading historical data...
Loading historical data...
Loading historical data...
Loading historical data...

Documentation

Showing up to 5 results
|